Date,TemperatureHighF,TemperatureAvgF,TemperatureLowF,DewpointHighF,DewpointAvgF,DewpointLowF,HumidityHigh,HumidityAvg,HumidityLow,PressureMaxIn,PressureMinIn,WindSpeedMaxMPH,WindSpeedAvgMPH,GustSpeedMaxMPH,PrecipitationSumIn
2012-1-1,87.4,80.1,75.0,72.6,70.8,69.1,86,74,59,30.12,30.01,14,4,14,0.06
2012-1-2,84.3,78.0,75.0,73.8,69.9,68.0,83,76,65,30.08,29.95,16,2,16,0.35
2012-1-3,87.6,78.5,72.3,74.0,70.3,67.1,84,76,64,30.07,29.93,13,2,13,0.04
2012-1-4,87.2,79.2,74.1,73.4,69.6,67.6,81,73,62,30.07,29.96,11,2,11,0.00
2012-1-5,85.8,78.5,75.5,72.9,69.8,68.2,80,75,65,30.05,29.93,10,1,10,0.06
2012-1-6,88.3,78.8,73.9,74.8,71.2,69.1,86,78,62,30.04,29.94,12,2,12,0.39
2012-1-7,87.0,79.4,74.4,73.4,71.2,69.7,86,77,60,30.07,29.95,16,2,16,0.30
2012-1-8,87.4,79.9,74.8,71.7,69.8,68.5,83,72,58,30.07,29.96,16,2,16,0.00
2012-1-9,87.6,79.9,74.3,72.6,69.5,67.1,79,71,60,30.04,29.93,15,3,15,0.04
2012-1-10,87.6,79.6,74.3,71.7,69.3,67.1,80,71,58,30.00,29.91,19,3,19,0.00
2012-1-11,87.0,79.5,75.0,70.4,68.7,67.3,78,70,57,30.02,29.92,17,3,17,0.00
2012-1-12,87.8,79.7,73.7,70.5,67.2,64.9,75,66,53,30.05,29.95,17,3,21,0.00
2012-1-13,88.5,79.9,75.3,73.4,70.1,67.4,82,72,57,30.11,29.99,21,3,21,0.00
2012-1-14,87.6,79.8,75.0,71.4,69.8,67.9,82,72,57,30.14,30.02,18,3,18,0.24
2012-1-15,87.9,80.1,75.5,72.0,69.9,67.4,83,72,58,30.17,30.06,17,3,17,0.10
2012-1-16,87.9,80.3,74.8,70.0,68.6,66.8,81,68,54,30.15,30.05,16,6,16,0.08
2012-1-17,83.8,77.6,73.0,71.3,68.8,66.9,84,75,64,30.15,30.03,22,9,23,0.35
2012-1-18,85.1,77.5,72.5,69.2,67.8,66.1,85,72,57,30.09,29.96,24,7,24,0.24
2012-1-19,88.1,78.1,71.4,71.6,68.2,66.0,85,72,52,30.05,29.93,11,2,11,0.14
2012-1-20,87.6,79.5,73.5,70.4,68.4,66.8,82,69,55,30.05,29.95,10,3,10,0.04
2012-1-21,87.2,78.9,72.1,72.4,68.3,65.8,81,70,56,30.07,29.97,18,3,18,0.00
2012-1-22,86.1,79.1,74.1,69.6,67.6,66.2,79,68,58,30.05,29.97,18,5,18,0.04
2012-1-23,85.8,79.0,74.4,69.2,66.3,63.5,79,65,55,30.05,29.94,18,7,20,0.08
2012-1-24,87.6,79.3,75.5,67.4,65.2,63.3,72,62,49,30.05,29.96,17,6,17,0.00
2012-1-25,87.0,78.4,75.7,69.0,66.3,64.4,72,67,53,30.07,29.98,18,7,18,0.02
2012-1-26,85.6,78.1,75.3,68.6,66.8,64.8,76,69,55,30.07,29.96,20,8,20,0.04
2012-1-27,86.7,78.1,73.0,70.6,67.7,65.7,81,71,53,30.09,30.00,19,6,19,0.14
2012-1-28,86.5,78.3,72.6,71.8,68.4,66.1,83,72,58,30.12,30.02,19,5,19,0.33
2012-1-29,84.9,77.5,73.0,71.2,68.5,66.6,85,74,59,30.12,30.01,17,4,17,0.43
2012-1-30,85.4,77.8,73.0,72.7,69.7,67.5,85,76,65,30.11,29.99,17,5,17,0.53
2012-1-31,86.3,78.7,72.6,71.3,69.2,66.7,86,73,60,30.10,29.99,23,8,23,0.02
2012-2-1,83.3,78.0,74.8,72.1,69.2,66.6,82,75,66,30.08,29.99,20,6,20,0.28
2012-2-2,85.1,78.0,72.8,72.1,69.4,66.9,86,75,63,30.06,29.94,14,4,14,0.25
2012-2-3,85.1,78.3,73.9,72.6,69.9,67.7,83,76,62,30.04,29.94,19,4,19,0.24
2012-2-4,84.9,78.2,74.4,70.2,67.6,64.8,82,70,59,30.06,29.95,20,7,20,0.14
2012-2-5,87.0,78.5,72.5,71.5,69.0,65.9,85,73,58,30.04,29.92,14,3,14,0.04
2012-2-6,86.3,78.3,73.2,72.6,69.1,66.0,80,73,61,30.07,29.95,15,2,15,0.17
2012-2-7,85.1,77.5,73.2,71.6,69.4,67.6,84,76,64,30.05,29.94,15,3,15,0.20
2012-2-8,86.9,78.5,73.7,72.8,69.9,67.9,84,76,61,30.03,29.91,18,3,18,0.14
2012-2-9,87.9,80.0,75.0,73.6,70.8,68.6,85,74,60,30.04,29.92,15,3,15,0.04
2012-2-10,86.7,79.7,74.3,73.8,70.5,49.7,82,74,40,30.04,29.95,17,3,17,0.02
2012-2-11,90.6,80.3,73.5,73.2,68.9,65.7,79,69,45,30.01,29.92,17,3,17,0.00
2012-2-12,88.3,79.7,73.7,71.6,68.7,65.7,78,70,55,30.00,29.90,10,2,10,0.00
2012-2-13,87.8,78.8,72.8,72.2,68.5,65.6,80,71,59,30.00,29.90,19,3,19,0.00
2012-2-14,84.0,78.0,75.0,72.3,69.8,68.4,82,76,66,30.05,29.94,15,6,15,0.06
2012-2-15,86.0,77.7,74.1,71.5,69.4,67.2,84,76,62,30.05,30.00,15,6,15,0.04
2012-2-16,88.3,78.9,74.4,71.7,69.7,68.0,84,74,54,30.07,29.97,14,4,14,0.08
2012-2-17,89.4,80.9,75.7,69.9,67.8,66.0,76,65,50,30.02,29.94,16,5,16,0.00
2012-2-18,87.0,79.2,74.4,70.8,67.6,65.7,76,68,55,30.01,29.93,10,3,10,0.06
2012-2-19,85.6,77.4,72.6,71.4,68.6,66.1,80,74,61,30.02,29.93,21,2,21,0.51
2012-2-20,88.7,78.6,70.8,68.6,66.5,63.2,81,68,49,30.04,29.93,13,3,13,0.00
2012-2-21,89.4,78.4,72.5,72.7,68.1,65.2,78,71,57,30.08,29.98,14,3,14,0.00
2012-2-22,89.0,81.0,75.9,71.5,68.8,66.5,75,67,54,30.07,29.96,16,5,16,0.00
2012-2-23,89.2,80.9,75.3,73.5,70.9,69.1,82,72,57,30.07,29.96,19,4,19,0.10
2012-2-24,88.3,80.9,74.4,72.2,69.8,67.7,82,70,56,30.08,29.97,18,5,18,0.00
2012-2-25,88.8,81.0,75.3,72.3,69.7,67.2,77,69,57,30.08,29.98,18,5,18,0.00
2012-2-26,88.8,80.5,75.0,72.2,69.6,67.8,80,70,56,30.11,30.02,18,5,18,0.08
2012-2-27,89.4,81.1,76.8,71.3,68.5,50.4,78,66,32,30.15,30.05,22,6,22,0.02
2012-2-28,87.6,79.5,75.6,72.0,68.4,67.2,79,69,59,30.11,30.01,15,6,15,0.04
2012-2-29,88.3,79.5,73.5,70.5,68.5,66.8,81,70,55,30.09,30.00,20,5,20,0.19
2012-3-1,82.7,77.6,74.6,71.8,69.3,67.5,80,76,67,30.08,29.99,14,3,14,0.18
2012-3-2,88.3,81.0,72.5,73.5,70.3,67.5,85,71,59,30.07,30.00,20,5,20,0.10
2012-3-3,87.6,80.3,75.0,74.7,70.5,67.3,84,72,61,30.06,29.98,18,4,18,0.08
2012-3-4,88.8,80.1,75.0,73.0,69.6,67.3,82,71,59,30.08,29.97,17,4,18,0.02
2012-3-5,88.7,81.7,76.8,73.7,69.9,66.6,78,68,54,30.11,30.00,19,5,19,0.04
2012-3-6,88.8,79.4,74.6,72.7,68.0,65.9,81,68,52,30.13,30.01,23,6,23,0.02
2012-3-7,87.4,78.6,72.5,69.9,68.1,66.3,86,71,54,30.12,30.03,25,9,25,0.41
2012-3-8,88.5,79.4,72.5,71.0,68.1,65.9,84,69,54,30.09,29.99,19,6,19,0.27
2012-3-9,88.1,80.0,74.6,71.3,68.5,65.5,79,68,57,30.05,29.94,19,4,19,0.02
2012-3-10,89.2,80.0,73.7,72.3,69.1,66.6,79,70,55,30.05,29.96,14,3,14,0.00
2012-3-11,90.1,80.8,74.4,72.5,69.7,67.8,80,70,55,30.08,29.99,13,3,13,0.00
2012-3-12,87.3,80.1,76.5,71.0,68.2,64.6,75,67,55,30.07,30.00,13,6,13,0.00
2012-3-13,88.7,80.5,75.5,71.0,67.4,64.6,72,65,53,30.07,29.97,18,6,18,0.00
2012-3-14,88.3,78.9,75.0,72.0,68.3,65.6,78,70,56,30.07,29.98,21,4,21,0.06
2012-3-15,88.1,79.5,74.4,70.3,67.3,64.6,75,67,54,30.09,29.99,16,3,16,0.02
2012-3-16,90.1,80.8,74.4,70.1,67.7,66.2,77,65,48,30.05,29.95,17,4,18,0.04
2012-3-17,89.4,81.2,75.5,70.6,68.1,65.6,73,65,52,30.06,29.94,16,4,16,0.00
2012-3-18,88.8,80.3,75.0,72.1,68.8,66.6,76,68,57,30.03,29.93,12,2,12,0.00
2012-3-19,90.1,80.6,75.0,70.8,68.3,65.8,75,67,51,29.99,29.89,11,3,11,0.00
2012-3-20,88.7,81.3,75.0,71.5,68.4,65.7,74,65,54,30.00,29.90,16,4,16,0.00
2012-3-21,89.9,80.7,74.6,73.0,69.0,66.6,82,68,55,30.03,29.92,17,4,17,0.39
2012-3-22,82.9,76.1,73.2,73.3,69.7,67.7,87,81,68,30.02,29.91,16,3,16,1.71
2012-3-23,84.3,76.1,71.4,71.9,69.3,67.6,89,80,64,29.99,29.89,18,5,18,1.24
2012-3-24,87.0,78.1,71.2,72.9,70.0,66.5,87,77,61,30.00,29.90,18,6,18,1.08
2012-3-25,84.7,76.8,72.3,74.7,70.8,68.8,89,82,71,30.01,29.91,13,2,13,1.88
2012-3-26,87.4,79.5,73.0,76.0,71.1,68.1,86,76,61,29.98,29.85,14,2,14,0.00
2012-3-27,90.5,80.6,75.3,74.8,70.4,67.6,78,71,59,30.01,29.89,9,1,9,0.04
2012-3-28,88.3,80.8,75.9,73.4,71.0,68.8,83,73,60,30.01,29.92,15,4,15,0.04
2012-3-29,83.8,77.6,73.9,73.8,70.8,68.9,88,80,70,30.01,29.91,17,4,17,1.30
2012-3-30,85.1,77.5,73.7,74.8,71.5,69.9,88,82,68,30.05,29.94,16,2,16,0.12
2012-3-31,86.0,80.7,76.1,73.7,70.9,67.9,82,73,64,30.07,29.95,19,4,19,0.10
2012-4-1,93.3,81.5,73.5,73.6,69.6,66.6,81,68,50,30.00,29.85,14,3,14,0.00
2012-4-2,93.9,82.0,75.0,75.0,70.6,68.1,79,69,47,29.94,29.81,13,3,13,0.00
2012-4-3,91.9,82.4,75.9,74.5,71.7,68.9,80,71,57,29.96,29.85,10,2,10,0.00
2012-4-4,90.1,82.0,77.0,74.5,71.6,69.6,78,71,60,29.96,29.86,14,4,14,0.00
2012-4-5,89.7,83.9,77.1,75.0,72.1,69.0,78,68,61,29.95,29.85,15,4,15,0.00
2012-4-6,91.9,82.7,76.8,75.0,71.4,69.1,80,69,54,29.96,29.86,20,4,20,0.00
2012-4-7,90.1,82.4,76.8,74.3,71.5,69.3,79,70,59,29.99,29.88,13,3,13,0.00
2012-4-8,91.5,82.9,77.3,74.2,71.5,69.5,78,69,56,29.96,29.87,12,3,14,0.00
2012-4-9,84.9,79.9,76.4,74.2,71.4,69.4,83,75,68,29.95,29.86,20,2,20,0.76
2012-4-10,86.1,78.5,74.8,74.3,71.0,68.9,82,78,66,29.96,29.86,14,2,14,0.55
2012-4-11,93.3,81.8,74.3,75.3,71.5,69.3,85,72,52,30.00,29.89,12,2,12,0.00
2012-4-12,87.9,81.5,76.8,76.0,72.5,70.0,81,75,60,29.98,29.87,14,2,14,0.08
2012-4-13,78.8,78.2,77.7,71.0,70.4,69.6,79,77,74,29.99,29.94,2,0,2,0.10
2012-4-14,82.0,77.5,74.6,73.4,71.0,68.2,88,80,74,30.02,29.92,20,5,20,0.51
2012-4-15,86.1,78.4,75.0,68.2,65.3,61.6,74,64,52,30.07,29.96,23,9,23,0.10
2012-4-16,89.2,82.1,76.8,65.9,63.4,60.9,63,54,43,30.06,29.98,19,8,19,0.00
2012-4-17,89.4,80.7,75.7,68.9,64.7,58.9,66,58,50,30.04,29.95,17,6,17,0.00
2012-4-18,90.6,80.9,74.4,67.0,64.3,61.4,68,58,44,30.03,29.92,11,4,11,0.00
2012-4-19,89.9,80.5,72.8,66.8,64.1,61.5,69,58,45,29.98,29.89,13,4,13,0.00
2012-4-20,90.6,83.2,78.2,72.1,69.9,65.0,71,65,54,29.95,29.86,14,5,14,0.00
2012-4-21,89.8,80.6,77.5,75.1,70.9,68.2,80,72,62,29.94,29.85,19,3,19,0.00
2012-4-22,92.4,83.0,77.9,76.9,73.8,72.1,83,74,58,29.95,29.83,12,3,13,0.28
2012-4-23,93.0,85.5,79.5,75.0,73.5,71.7,81,68,53,29.92,29.82,18,6,18,0.00
2012-4-24,96.9,86.6,79.7,75.5,72.9,70.5,79,65,48,29.93,29.82,20,5,20,0.00
2012-4-25,88.3,81.9,79.3,77.3,73.5,71.0,85,76,67,30.00,29.86,16,3,16,1.83
2012-4-26,90.8,82.9,77.5,76.2,73.7,71.8,84,74,59,30.01,29.92,20,6,20,0.00
2012-4-27,89.7,81.8,77.1,75.5,72.7,69.9,85,74,58,30.02,29.93,13,3,13,0.17
2012-4-28,91.2,84.4,79.3,74.3,71.4,53.7,75,65,35,30.00,29.93,19,6,19,0.00
2012-4-29,86.0,80.1,76.6,74.4,71.3,69.8,82,75,65,30.01,29.93,15,3,15,0.26
2012-4-30,81.1,77.5,75.9,72.3,70.8,69.5,84,80,74,29.99,29.91,10,2,10,0.35
2012-5-1,91.0,82.0,75.7,74.7,71.2,68.5,79,70,57,29.98,29.90,18,5,18,0.00
2012-5-2,85.2,79.9,76.8,75.7,73.3,71.4,87,81,72,29.98,29.87,13,4,13,0.80
2012-5-3,85.2,79.4,75.9,77.1,73.5,71.4,88,82,74,29.96,29.87,13,2,13,0.22
2012-5-4,86.7,78.8,75.7,76.3,72.7,69.2,88,82,66,29.95,29.86,14,1,14,0.08
2012-5-5,87.6,79.1,74.1,75.8,72.7,70.0,88,81,66,29.92,29.82,11,2,11,2.26
2012-5-6,87.6,80.4,77.0,73.8,71.7,69.5,81,75,63,29.91,29.84,11,3,11,0.02
2012-5-7,93.0,81.8,75.5,74.4,72.0,69.6,85,73,54,29.93,29.83,13,2,13,0.00
2012-5-8,91.2,82.6,78.0,76.0,73.4,70.6,84,74,61,29.94,29.84,15,3,15,0.12
2012-5-9,90.1,81.4,78.0,77.2,74.2,72.8,85,79,65,29.93,29.85,14,2,14,0.00
2012-5-10,92.1,83.0,77.1,78.5,74.3,70.6,85,75,60,29.96,29.85,16,3,16,0.49
2012-5-11,88.7,81.8,78.4,77.7,75.3,72.5,90,81,70,30.02,29.90,16,2,16,1.14
2012-5-12,96.0,83.7,77.7,79.5,75.2,71.3,88,76,58,30.04,29.95,18,3,18,0.00
2012-5-13,91.2,84.4,79.5,77.3,75.1,73.4,83,74,61,30.03,29.92,16,4,16,0.00
2012-5-14,90.8,83.5,78.9,75.5,73.4,71.8,79,72,61,30.00,29.93,16,4,16,0.00
2012-5-15,92.4,84.0,78.6,75.7,73.1,71.1,79,70,58,30.01,29.93,19,4,19,0.00
2012-5-16,91.2,83.3,78.4,76.8,73.3,70.1,82,72,59,30.00,29.91,21,4,21,0.06
2012-5-17,89.4,81.9,78.0,77.2,74.1,72.3,86,77,64,29.97,29.89,12,3,12,0.27
2012-5-18,89.7,81.6,76.8,77.3,74.5,71.9,88,80,65,29.96,29.88,17,3,17,0.26
2012-5-19,94.2,84.5,78.2,74.8,72.9,70.4,84,69,50,29.97,29.88,17,4,17,0.00
2012-5-20,89.7,83.3,78.9,76.8,73.6,71.5,79,73,62,30.02,29.93,16,4,16,0.26
2012-5-21,91.7,83.4,78.0,76.7,73.2,71.4,82,72,57,30.05,29.96,16,3,20,0.27
2012-5-22,87.9,82.1,77.5,77.0,74.0,70.8,84,77,65,30.03,29.93,19,3,19,0.53
2012-5-23,94.8,84.2,78.2,76.8,73.4,71.8,83,71,52,30.03,29.94,14,4,14,0.00
2012-5-24,94.8,84.9,78.6,75.4,72.6,71.2,79,67,48,30.04,29.97,20,5,20,0.00
2012-5-25,92.6,84.6,79.3,74.5,72.2,70.0,77,67,55,30.04,29.94,18,5,18,0.00
2012-5-26,92.4,83.4,77.5,73.3,70.3,68.6,74,65,52,30.01,29.91,18,3,18,0.00
2012-5-27,91.9,84.3,78.6,75.2,72.1,68.4,75,67,57,29.99,29.90,20,4,20,0.00
2012-5-28,92.4,84.7,78.9,75.4,72.9,70.7,78,68,55,29.99,29.91,16,4,16,0.00
2012-5-29,93.7,83.7,78.6,76.6,73.2,70.0,76,71,57,29.99,29.90,15,3,15,0.20
2012-5-30,94.6,85.8,80.4,77.4,74.3,72.4,77,69,53,29.99,29.88,16,3,16,0.00
2012-5-31,93.5,85.9,81.3,78.6,75.1,72.8,80,70,57,30.04,29.93,12,2,12,0.29
2012-6-1,98.0,87.6,80.4,79.4,74.7,72.9,79,67,50,30.08,29.98,16,4,16,0.00
2012-6-2,98.7,88.3,81.3,75.4,72.1,68.8,73,60,42,30.07,29.98,14,3,14,0.00
2012-6-3,94.4,86.6,80.7,77.9,73.8,71.2,74,66,58,30.05,29.94,13,3,13,0.00
2012-6-4,94.4,86.8,82.7,75.6,72.0,69.6,71,62,47,30.00,29.90,16,4,16,0.00
2012-6-5,83.3,81.9,80.7,71.4,71.0,70.8,72,70,67,29.97,29.93,7,1,7,0.00
2012-6-8,93.7,86.7,81.3,77.8,74.9,73.0,77,68,57,30.02,29.90,21,4,21,0.00
2012-6-9,93.9,86.3,81.3,76.9,74.1,72.3,76,67,56,29.99,29.93,16,5,16,0.00
2012-6-10,93.3,86.2,80.4,76.7,73.9,71.8,75,67,57,30.00,29.92,16,4,16,0.00
2012-6-11,96.4,86.7,79.8,77.1,74.0,71.2,75,67,53,29.98,29.91,13,3,13,0.00
2012-6-12,94.8,87.2,82.0,77.4,75.3,73.6,79,68,54,29.96,29.90,21,4,21,0.00
2012-6-13,97.7,86.5,81.3,77.6,73.0,0.0,75,65,43,30.01,29.92,15,2,15,0.00
2012-6-14,95.1,85.2,81.6,76.9,74.6,73.1,76,71,54,30.03,29.96,21,2,21,0.00
2012-6-15,98.0,87.6,81.3,76.5,73.1,70.6,74,63,42,30.01,29.92,20,4,20,0.00
2012-6-16,92.8,86.1,81.3,77.9,74.5,71.6,78,69,60,29.99,29.88,18,3,18,0.02
2012-6-17,93.9,85.5,81.1,76.4,74.5,72.3,79,70,56,30.00,29.89,15,2,15,0.00
2012-6-18,96.0,86.6,81.8,75.9,74.1,72.7,75,67,50,30.04,29.91,11,3,11,0.00
2012-6-19,90.3,84.7,80.0,76.3,73.7,71.8,78,70,59,30.03,29.93,18,3,18,0.00
2012-6-20,93.3,86.3,81.6,78.1,75.7,72.9,78,71,54,30.02,29.92,15,3,15,0.02
2012-6-21,98.2,88.0,81.3,78.4,75.0,72.5,81,67,47,29.98,29.89,18,4,18,0.00
2012-6-22,99.1,88.6,81.3,75.2,73.5,71.7,77,62,45,30.02,29.91,20,5,20,0.00
2012-6-23,97.1,86.9,81.8,77.8,73.2,68.9,75,65,46,30.05,29.97,16,4,18,0.00
2012-6-24,94.8,86.2,81.1,75.9,72.8,71.4,73,65,53,30.05,29.97,19,4,19,0.00
2012-6-25,94.6,86.3,81.1,76.2,73.3,71.8,76,66,50,30.04,29.94,22,3,24,0.02
2012-6-26,95.5,87.2,80.4,78.2,73.5,71.2,76,64,52,30.04,29.95,13,3,13,0.00
2012-6-27,95.0,87.5,81.5,78.8,75.8,72.5,78,69,55,30.09,30.00,22,4,22,0.00
2012-6-28,93.9,86.9,81.3,77.7,74.7,71.8,74,67,55,30.08,30.00,22,5,22,0.00
2012-6-29,95.9,86.4,81.1,76.4,73.7,69.6,76,66,51,30.03,29.94,18,3,18,0.00
2012-6-30,93.7,89.0,81.3,77.0,75.2,72.6,76,64,57,30.03,29.93,22,7,22,0.00
2012-7-1,95.7,87.3,81.6,78.4,74.9,72.1,74,67,56,30.03,29.96,19,5,19,0.00
2012-7-2,91.2,84.7,79.5,79.2,76.0,72.4,82,75,66,30.03,29.95,22,4,22,0.49
2012-7-3,93.9,85.8,80.4,78.1,75.5,73.6,81,72,59,30.03,29.95,21,5,21,0.00
2012-7-4,91.9,83.7,77.3,77.3,73.9,71.5,84,73,61,30.01,29.91,24,5,24,0.27
2012-7-5,84.3,77.4,74.3,76.0,72.0,68.9,87,83,75,30.01,29.89,16,1,16,1.16
2012-7-6,93.7,89.0,76.6,78.8,76.8,72.4,87,68,61,30.00,29.95,19,6,19,0.00
2012-7-7,94.6,86.1,81.1,78.1,75.3,73.3,80,71,58,30.01,29.95,15,4,15,0.02
2012-7-8,91.7,86.6,81.6,77.3,75.3,73.3,76,69,62,30.00,29.92,16,4,16,0.00
2012-7-9,90.8,83.2,79.5,77.9,74.6,72.9,83,76,64,29.99,29.91,12,2,12,0.67
2012-7-10,93.7,85.5,78.6,78.0,75.3,73.0,84,72,60,30.00,29.92,21,4,21,0.00
2012-7-11,94.4,87.8,82.5,77.4,75.4,73.6,78,67,57,29.99,29.91,18,6,18,0.00
2012-7-12,92.1,85.5,81.1,76.3,74.1,52.6,78,69,33,29.96,29.88,15,4,18,0.04
2012-7-13,88.3,82.8,78.9,78.2,73.9,71.3,83,75,66,30.01,29.89,14,2,14,1.12
2012-7-14,94.1,85.1,78.6,79.4,75.2,72.2,82,73,58,30.06,29.95,20,3,20,0.04
2012-7-15,94.6,86.4,82.2,80.3,77.1,55.4,82,74,33,30.05,29.96,18,4,18,0.35
2012-7-16,94.2,86.9,81.5,79.4,76.7,74.9,83,72,61,30.03,29.95,21,5,21,0.26
2012-7-17,95.9,86.2,82.0,77.7,75.2,73.6,78,70,56,30.05,29.95,16,4,16,0.02
2012-7-18,94.1,84.8,79.7,78.1,74.9,73.0,82,73,58,30.06,29.97,20,4,20,0.18
2012-7-19,90.3,83.0,79.5,79.1,75.4,73.2,83,78,66,30.05,29.97,16,3,16,0.47
2012-7-20,88.3,83.0,78.6,78.9,76.5,73.4,86,81,71,30.02,29.92,15,3,15,0.92
2012-7-21,95.3,86.0,78.8,79.5,76.6,74.0,87,75,56,30.06,29.92,20,4,20,0.06
2012-7-22,94.6,86.4,82.0,79.6,76.9,74.9,83,74,60,30.10,30.00,21,4,21,0.02
2012-7-23,95.0,87.5,81.1,77.1,74.8,71.9,82,67,54,30.08,30.00,20,7,20,0.02
2012-7-24,93.0,86.4,82.0,78.1,75.6,73.2,77,71,61,30.06,29.97,22,5,22,0.00
2012-7-25,97.1,86.7,81.3,78.1,75.7,72.1,82,71,49,30.04,29.96,18,4,18,0.04
2012-7-26,94.4,87.0,81.3,77.3,74.6,72.2,74,67,56,30.04,29.96,21,5,21,0.00
2012-7-27,94.8,87.7,83.3,75.4,74.0,72.1,72,64,52,30.05,29.98,20,6,20,0.26
2012-7-28,94.2,87.3,82.5,78.2,75.5,72.3,79,68,59,30.03,29.95,16,4,16,0.08
2012-7-29,95.1,87.6,82.2,80.1,76.8,74.4,78,71,61,30.00,29.92,16,5,16,0.00
2012-7-30,91.5,85.4,82.2,79.6,76.4,74.3,82,75,63,29.97,29.88,19,6,19,0.06
2012-7-31,84.3,80.8,76.8,77.2,75.3,71.9,87,83,76,30.02,29.92,12,1,12,1.83
2012-8-1,92.1,84.3,78.4,79.4,76.2,74.1,88,77,62,30.02,29.92,24,3,24,0.20
2012-8-2,94.8,87.4,80.4,77.8,75.7,73.8,83,69,55,30.01,29.93,17,4,17,0.00
2012-8-3,93.9,86.5,81.5,77.9,75.3,73.1,79,70,58,29.98,29.90,19,5,19,0.04
2012-8-4,92.4,84.3,78.4,77.9,75.0,72.2,87,74,59,30.03,29.89,19,4,19,0.35
2012-8-5,93.7,87.3,82.5,79.2,76.1,74.3,78,70,61,30.05,29.97,19,5,19,0.00
2012-8-6,95.1,87.7,81.3,78.1,75.5,73.7,78,68,57,30.03,29.92,15,4,15,0.32
2012-8-7,89.2,84.5,80.4,77.3,75.4,72.1,82,74,67,29.97,29.90,18,3,18,0.14
2012-8-8,91.5,83.8,79.8,78.3,75.8,74.0,85,77,64,29.98,29.90,14,3,14,0.12
2012-8-9,98.7,89.2,80.6,79.1,75.6,71.1,83,66,45,29.97,29.90,15,3,15,0.02
2012-8-10,95.7,88.3,81.6,80.0,76.8,73.3,77,69,58,30.01,29.92,17,4,17,0.32
2012-8-11,95.5,87.6,82.2,79.1,75.7,73.5,75,68,56,30.01,29.94,20,5,20,0.00
2012-8-12,96.0,87.5,75.9,77.2,75.1,70.0,82,67,51,30.04,29.91,21,6,21,1.29
2012-8-13,91.2,82.5,75.7,78.6,74.2,70.0,85,76,64,30.04,29.95,14,2,14,0.18
2012-8-14,93.7,86.1,79.8,77.8,75.3,73.7,82,71,58,30.01,29.92,20,4,20,0.02
2012-8-15,95.3,83.8,78.6,78.8,75.7,72.7,85,77,58,30.03,29.93,17,2,17,0.80
2012-8-16,89.4,85.1,82.2,78.1,76.3,75.3,81,75,69,30.02,29.94,10,2,10,0.08
2012-8-17,91.5,84.5,80.7,79.6,76.3,74.0,83,77,64,30.01,29.91,20,3,20,0.27
2012-8-18,92.6,85.3,80.4,79.6,76.6,75.1,85,76,64,30.03,29.92,17,3,17,0.14
2012-8-19,94.8,87.2,81.3,78.5,76.3,73.9,83,70,57,30.06,29.98,18,4,18,0.00
2012-8-20,95.1,89.3,83.1,78.0,75.8,73.6,74,65,57,30.05,29.97,20,7,20,0.00
2012-8-21,87.9,83.9,80.9,77.2,75.2,73.5,83,75,70,30.01,29.94,16,5,16,0.37
2012-8-22,92.8,84.3,79.3,78.6,76.4,49.0,87,78,33,29.96,29.82,20,6,20,0.49
2012-8-23,88.5,83.0,78.6,78.6,75.4,71.3,86,78,68,29.84,29.71,20,6,20,0.24
2012-8-24,84.3,79.1,77.1,74.8,71.8,70.2,85,78,70,29.93,29.79,18,3,18,0.53
2012-8-25,90.5,81.1,75.9,78.0,73.6,69.2,88,79,58,29.94,29.84,17,2,19,0.39
2012-8-26,90.8,83.6,78.6,76.7,74.0,71.5,84,73,58,30.03,29.91,12,1,12,0.00
2012-8-27,88.8,81.7,78.0,76.8,73.1,69.9,84,76,62,30.06,29.96,12,1,12,0.37
2012-8-28,93.9,85.7,78.6,79.0,75.5,72.9,84,72,56,30.06,29.95,22,4,22,0.00
2012-8-29,94.8,85.9,80.9,77.4,75.2,74.2,81,71,53,30.03,29.93,14,4,14,0.00
2012-8-30,94.2,85.7,79.7,77.7,75.1,73.1,83,71,58,30.00,29.93,17,4,17,0.12
2012-8-31,94.2,86.4,80.4,77.5,74.7,72.0,79,69,57,30.02,29.93,15,4,15,0.00
2012-9-1,96.0,87.9,81.5,77.8,74.9,73.0,76,66,54,29.99,29.89,22,3,22,0.00
2012-9-2,89.9,85.2,81.5,77.0,75.1,73.4,78,72,65,29.96,29.86,13,3,13,0.00
2012-9-3,93.0,85.1,79.3,77.5,73.7,69.5,74,69,60,30.00,29.89,10,2,10,0.00
2012-9-4,91.9,85.8,80.7,77.3,74.0,68.1,76,68,52,29.99,29.91,11,2,11,0.00
2012-9-5,96.0,86.8,81.1,76.5,74.8,64.4,77,68,43,29.99,29.90,10,2,10,0.00
2012-9-6,92.1,87.1,82.0,77.5,75.2,73.0,76,68,61,29.98,29.90,14,3,14,0.00
2012-9-7,92.1,85.1,80.4,77.6,73.6,53.5,75,69,39,29.95,29.86,12,2,12,0.00
2012-9-8,92.8,86.3,84.0,76.9,75.3,74.2,76,70,60,30.00,29.90,11,2,11,0.00
2012-9-9,95.1,87.8,82.5,77.5,75.2,71.0,74,67,56,30.01,29.94,13,4,13,0.00
2012-9-10,91.5,85.1,81.6,76.2,73.7,72.1,73,69,60,30.00,29.95,12,2,12,0.00
2012-9-11,94.2,86.5,80.9,77.4,74.5,71.4,76,68,57,29.99,29.89,15,3,15,0.04
2012-9-12,96.0,87.4,81.3,77.8,74.4,72.0,74,66,54,29.95,29.85,14,3,14,0.00
2012-9-13,92.4,85.4,81.1,79.6,75.2,72.9,78,72,63,29.94,29.85,20,2,20,0.65
2012-9-14,89.4,84.3,80.4,77.7,75.7,73.7,82,76,67,29.96,29.88,10,1,10,0.00
2012-9-15,94.1,85.7,80.4,79.1,76.2,74.0,82,74,61,29.97,29.88,16,2,16,0.02
2012-9-16,94.8,86.3,79.8,78.0,75.9,73.8,83,72,57,29.96,29.88,12,2,12,0.00
2012-9-17,95.1,87.1,81.5,78.2,75.9,74.3,79,70,56,29.98,29.90,16,3,16,0.00
2012-9-18,90.5,85.2,82.2,78.9,76.1,74.2,82,75,66,29.99,29.90,12,2,12,0.27
2012-9-19,95.9,86.6,80.7,79.4,76.6,74.5,83,73,57,29.97,29.88,19,3,19,0.00
2012-9-20,95.9,88.0,82.9,78.9,76.0,74.0,76,68,58,29.94,29.81,13,4,13,0.00
2012-9-21,92.6,86.0,82.0,78.1,75.1,73.1,78,70,60,29.93,29.82,13,2,13,0.00
2012-9-22,94.8,88.4,82.0,79.4,75.4,72.0,78,66,55,30.00,29.90,14,4,14,0.00
2012-9-23,95.5,87.5,82.0,77.7,75.4,71.9,79,68,55,30.02,29.92,17,4,17,0.00
2012-9-24,94.8,89.2,84.5,78.1,75.6,73.2,73,65,57,29.99,29.88,17,5,17,0.00
2012-9-25,89.2,83.8,76.8,77.5,74.7,71.2,84,74,66,29.99,29.91,14,3,14,0.71
2012-9-26,94.2,85.2,77.1,78.4,75.3,71.9,85,73,57,29.98,29.89,11,2,11,0.41
2012-9-27,94.2,85.5,78.4,77.4,74.8,46.9,83,71,30,29.95,29.85,12,2,12,0.17
2012-9-28,92.1,83.4,79.7,77.6,74.6,73.0,81,75,62,29.93,29.85,13,2,13,0.67
2012-9-29,95.9,85.9,79.1,77.7,74.8,73.4,84,70,53,29.96,29.87,14,3,14,0.00
2012-9-30,94.1,86.5,80.9,78.9,75.2,72.5,80,70,56,29.98,29.89,12,2,12,0.00
2012-10-1,94.1,86.5,81.5,78.6,75.8,15.6,79,71,6,29.98,29.90,19,4,19,0.08
2012-10-2,95.5,86.1,80.2,78.6,75.6,73.5,83,72,56,30.02,29.93,16,4,16,0.06
2012-10-3,94.4,86.6,81.6,76.6,74.2,71.9,80,67,53,30.04,29.95,17,5,17,0.02
2012-10-4,95.1,86.6,81.3,77.9,74.3,71.8,76,67,54,29.99,29.88,16,4,16,0.02
2012-10-5,94.8,86.0,80.2,76.3,73.8,71.7,80,68,53,29.90,29.78,8,1,8,0.06
2012-10-6,94.1,84.5,79.7,75.8,72.8,70.8,77,68,55,29.83,29.74,10,2,10,0.00
2012-10-7,92.8,84.5,79.5,79.6,73.8,71.7,78,71,60,29.94,29.79,15,2,15,0.19
2012-10-8,91.4,83.9,80.2,79.4,75.3,73.2,84,75,65,30.00,29.89,13,2,13,0.12
2012-10-9,94.4,85.0,78.6,79.2,75.4,72.8,85,74,59,29.98,29.88,15,2,15,0.00
2012-10-10,93.5,85.7,80.4,78.1,74.9,70.5,80,70,58,29.96,29.85,14,2,14,0.00
2012-10-11,90.3,82.7,78.6,78.3,75.1,71.1,85,78,67,29.94,29.84,14,1,14,1.00
2012-10-12,90.1,83.1,76.1,77.7,75.4,71.3,88,78,62,29.89,29.80,17,2,17,0.33
2012-10-13,93.0,84.6,78.9,80.3,76.7,74.4,88,78,64,29.82,29.70,10,3,10,0.15
2012-10-14,87.6,83.1,80.6,78.2,76.0,74.2,86,79,71,29.74,29.65,10,3,10,0.28
2012-10-15,89.7,83.8,79.3,78.1,75.0,72.2,81,75,62,29.73,29.63,14,2,14,0.17
2012-10-16,91.2,83.9,80.4,78.1,75.1,72.9,82,75,62,29.83,29.68,9,1,9,0.77
2012-10-17,90.8,83.0,79.5,78.7,75.6,73.8,85,79,63,29.91,29.79,10,1,10,0.59
2012-10-18,90.6,83.1,78.0,78.5,75.5,73.6,87,78,66,29.91,29.81,14,2,14,0.18
2012-10-19,91.9,82.5,77.5,77.2,74.4,73.0,87,77,59,29.90,29.81,8,2,8,0.10
2012-10-20,89.7,83.0,78.6,77.7,73.7,71.6,81,74,63,29.91,29.81,18,2,18,0.14
2012-10-21,91.7,83.2,77.9,78.1,74.1,71.6,82,74,61,29.89,29.79,19,3,19,0.00
2012-10-22,89.9,82.9,78.0,78.1,74.4,72.3,84,76,66,29.85,29.76,15,2,15,0.17
2012-10-23,93.0,84.2,78.6,77.0,73.6,71.5,81,71,58,29.85,29.73,17,3,17,0.00
2012-10-24,93.0,85.1,79.7,76.5,73.2,71.6,77,68,52,29.84,29.76,12,3,12,0.00
2012-10-25,90.8,83.8,78.6,75.8,73.5,71.2,84,72,56,29.85,29.76,19,3,19,0.20
2012-10-26,93.0,82.4,77.5,79.1,75.3,72.9,88,80,61,29.84,29.73,16,4,16,0.41
2012-10-27,96.6,86.6,79.5,76.6,74.9,73.1,85,70,50,29.81,29.71,14,3,14,0.00
2012-10-28,91.7,86.3,81.6,79.4,75.3,73.4,78,70,62,29.82,29.73,10,2,10,0.00
2012-10-29,93.3,85.9,80.7,78.4,75.3,73.2,79,71,60,29.89,29.78,9,1,9,0.00
2012-10-30,95.0,86.5,80.9,79.6,75.4,46.8,81,70,30,29.96,29.84,12,2,12,0.00
2012-10-31,93.9,85.6,80.4,78.7,75.4,73.1,80,72,60,29.97,29.86,13,3,13,0.00
2012-11-1,94.1,85.7,80.0,77.7,75.4,73.3,80,72,57,29.96,29.85,11,2,11,0.02
2012-11-2,93.3,85.3,79.3,76.2,74.0,72.7,82,70,56,29.96,29.87,11,3,11,0.04
2012-11-3,93.7,85.4,80.4,77.0,74.4,72.0,78,70,57,29.96,29.88,16,3,16,0.02
2012-11-4,92.8,85.2,79.8,76.5,73.7,71.0,78,69,57,29.95,29.86,16,3,16,0.02
2012-11-5,91.9,83.6,78.6,77.5,74.6,72.9,84,75,60,29.93,29.83,11,2,11,0.24
2012-11-6,90.5,83.5,78.6,78.3,74.0,72.0,81,73,65,29.92,29.83,12,2,12,0.02
2012-11-7,94.2,84.7,78.4,78.4,73.9,71.6,82,71,53,29.91,29.80,12,2,12,0.00
2012-11-8,93.3,85.1,79.7,76.8,74.3,72.2,80,71,58,29.93,29.83,16,3,16,0.00
2012-11-9,93.5,85.1,79.1,77.6,74.3,72.0,79,70,59,29.92,29.82,10,2,10,0.00
2012-11-10,93.5,84.8,81.6,76.9,74.1,71.9,77,71,58,29.95,29.82,14,4,14,0.00
2012-11-11,92.1,84.0,80.6,77.1,74.5,72.5,79,73,61,29.93,29.84,14,5,14,0.00
2012-11-12,93.3,84.7,78.6,77.7,75.0,72.2,84,73,57,29.94,29.79,15,4,15,0.06
2012-11-13,89.4,83.0,78.9,76.6,74.3,71.3,83,75,64,29.92,29.82,13,2,13,0.12
2012-11-14,89.4,82.7,78.9,78.4,74.9,72.9,83,77,64,29.94,29.83,11,1,11,0.06
2012-11-15,92.4,84.0,78.0,75.6,73.9,72.0,84,72,56,29.92,29.83,13,3,13,0.08
2012-11-16,91.0,83.6,78.8,78.1,75.3,73.2,84,76,65,29.92,29.82,14,2,14,0.02
2012-11-17,91.9,84.1,79.5,78.5,74.6,48.8,80,74,30,29.94,29.85,10,2,10,0.14
2012-11-18,92.3,84.2,78.9,78.5,74.7,72.8,83,73,62,29.95,29.85,13,2,13,0.00
2012-11-19,89.2,82.6,78.9,78.6,74.9,72.9,83,78,68,29.92,29.81,13,2,13,0.06
2012-11-20,89.7,82.4,77.7,77.2,74.5,72.4,85,77,66,29.85,29.76,8,1,8,0.00
2012-11-21,91.5,82.7,78.6,77.6,74.5,72.7,83,77,63,29.87,29.76,7,1,7,0.33
2012-11-22,89.2,81.7,77.1,77.7,75.0,71.9,86,80,68,29.90,29.80,8,1,8,0.20
2012-11-23,85.6,78.7,75.9,76.4,73.4,72.1,88,84,72,29.93,29.82,21,0,21,1.16
2012-11-24,90.3,79.4,74.8,74.4,72.3,71.3,89,80,58,29.97,29.86,11,1,11,0.00
2012-11-25,90.8,83.9,78.6,75.8,73.0,57.3,79,70,43,30.03,29.90,15,4,15,0.00
2012-11-26,91.0,84.0,80.6,74.3,72.5,70.8,76,69,57,30.06,29.96,13,6,13,0.00
2012-11-27,89.9,83.7,80.4,76.2,73.6,70.9,77,72,62,30.04,29.93,11,4,11,0.00
2012-11-28,90.6,82.9,77.3,77.3,73.8,71.4,82,74,59,30.00,29.89,12,2,12,0.10
2012-11-29,91.5,83.1,77.7,75.7,72.4,68.2,85,71,55,29.96,29.89,11,3,11,0.24
2012-11-30,91.5,83.5,78.6,74.7,71.3,67.4,78,67,54,29.96,29.86,12,3,12,0.00
2012-12-1,84.0,79.8,76.2,76.1,71.7,69.9,82,76,70,29.93,29.84,8,1,9,0.19
2012-12-2,90.1,80.8,75.2,75.3,71.9,69.6,85,75,61,29.91,29.79,7,1,7,0.88
2012-12-3,86.5,78.4,73.9,74.9,72.5,70.3,89,82,68,29.93,29.80,8,1,8,1.87
2012-12-4,87.9,80.5,76.2,71.8,69.9,68.8,86,71,55,29.98,29.87,16,7,16,0.02
2012-12-5,89.4,81.8,77.1,73.5,70.6,67.4,80,69,58,29.97,29.86,18,6,19,0.04
2012-12-6,88.7,80.0,73.9,74.0,71.0,68.9,86,75,59,29.92,29.83,16,4,16,0.39
2012-12-7,85.8,80.2,75.9,71.4,67.5,64.8,81,66,58,29.96,29.85,12,2,12,0.00
2012-12-8,90.3,82.1,77.9,73.5,70.5,66.3,78,68,56,30.02,29.89,14,2,14,0.00
2012-12-9,90.1,82.3,77.5,74.7,71.7,69.7,78,71,59,30.06,29.95,13,3,13,0.00
2012-12-10,89.4,82.2,78.0,72.2,69.4,47.2,78,66,30,30.01,29.91,20,5,20,0.00
2012-12-11,88.8,81.8,75.9,73.2,70.8,68.6,84,70,58,30.02,29.92,21,6,21,0.29
2012-12-12,89.9,81.9,79.5,74.2,71.1,68.4,76,70,59,30.02,29.93,16,5,16,0.00
2012-12-13,82.7,78.6,76.6,74.4,71.8,68.7,85,80,68,29.98,29.87,11,1,11,0.59
2012-12-14,89.2,79.9,74.8,72.6,70.7,69.3,86,74,55,29.94,29.83,12,2,12,0.04
2012-12-15,85.8,79.5,75.0,72.3,69.6,67.3,85,72,62,29.96,29.83,12,1,12,0.20
2012-12-16,83.4,78.0,72.1,70.8,68.7,66.5,86,74,63,29.97,29.88,8,1,8,0.35
2012-12-17,87.6,79.0,73.2,72.6,69.1,66.6,87,72,57,29.99,29.89,13,2,13,0.29
2012-12-18,87.8,81.7,73.5,71.6,69.7,66.6,79,67,57,29.98,29.90,16,3,16,0.00
2012-12-19,84.3,78.7,74.1,73.6,70.4,67.6,88,76,69,29.98,29.88,12,2,12,1.53
2012-12-20,88.7,82.4,77.9,71.7,69.5,67.0,76,65,56,29.99,29.90,15,6,15,0.00
2012-12-21,82.5,78.1,74.8,72.2,70.7,69.5,86,78,68,29.98,29.89,21,4,21,0.45
2012-12-22,85.2,79.6,73.4,71.9,68.6,67.2,90,70,59,29.97,29.88,12,1,12,0.31
2012-12-23,88.7,80.3,75.2,69.3,67.2,64.4,80,65,50,30.02,29.90,15,3,15,0.00
2012-12-24,86.1,79.5,74.1,70.7,67.6,64.5,73,67,60,30.00,29.89,16,2,16,0.00
2012-12-25,87.0,79.8,75.2,73.7,70.5,67.8,79,73,64,30.00,29.89,14,2,14,0.00
2012-12-26,85.8,79.5,75.3,72.6,71.0,69.6,83,76,63,30.01,29.91,18,2,18,0.04
2012-12-27,87.9,81.0,76.2,77.0,72.7,70.3,82,76,65,30.01,29.91,19,2,19,0.02
2012-12-28,89.4,81.6,76.1,72.7,71.4,43.8,82,72,30,30.03,29.93,16,3,16,0.04
2012-12-29,87.6,80.7,76.2,71.6,69.6,67.9,79,69,57,30.04,29.94,19,3,19,0.02
2012-12-30,90.1,80.6,73.7,72.1,68.5,65.3,76,67,53,30.06,29.96,11,2,11,0.00
2012-12-31,84.5,79.2,75.7,70.9,68.8,65.6,83,71,56,30.08,29.99,18,2,18,0.04
2013-1-1,87.4,79.7,75.0,73.7,70.5,67.7,84,74,61,30.07,29.96,15,3,15,0.12